UAE147 OMDB-EHAM

Flight info

Callsign UAE147
Flight time N/A
Altitude 32000
Route SENPA N571 ALPOB L768 VATIM L550 ORSAL/N0514F340 L550 NOVPA J981 DATOK L550 GENIV L324 LAKTO DCT OTHON UN128 RDS UL609 MES DCT FSK UL608 DISOR DCT LONTA/N0493F360 UL608 DOLEV DCT GUBOK DCT OBUTI DCT LAMSI DCT MAPOX L604 BIGGE DCT AMSAN T281 NORKU
Aircraft A388/J-SADE2E3FGHIJ3J4J5M1RWXY/LB1D1

Departure

Time N/A
Airport Dubai International Airport (OMDB)

Arrival

Time 2026-04-28 14:34
Airport Amsterdam Airport Schiphol (EHAM)
Time Latitude Longitude Altitude Speed Heading
2026-04-28 14:16 52.49827 5.85800 17923 ft 392 kts 276°
2026-04-28 14:16 52.50034 5.81323 17194 ft 393 kts 275°
2026-04-28 14:16 52.50236 5.76900 16828 ft 383 kts 275°
2026-04-28 14:16 52.50432 5.72559 16258 ft 380 kts 275°
2026-04-28 14:17 52.50626 5.68239 15515 ft 382 kts 275°
2026-04-28 14:17 52.50819 5.63897 14860 ft 382 kts 275°
2026-04-28 14:17 52.50963 5.59625 14342 ft 377 kts 269°
2026-04-28 14:17 52.50689 5.55344 13629 ft 379 kts 257°
2026-04-28 14:18 52.49932 5.51268 13191 ft 370 kts 249°
2026-04-28 14:18 52.49067 5.47348 12764 ft 361 kts 250°
2026-04-28 14:18 52.48224 5.43430 11992 ft 366 kts 250°
2026-04-28 14:18 52.47381 5.39494 11336 ft 365 kts 250°
2026-04-28 14:19 52.46542 5.35592 10686 ft 361 kts 250°
2026-04-28 14:19 52.45719 5.31785 10178 ft 352 kts 250°
2026-04-28 14:19 52.44904 5.28026 9386 ft 350 kts 250°
2026-04-28 14:19 52.44090 5.24283 8801 ft 343 kts 249°
2026-04-28 14:20 52.43311 5.20713 8630 ft 322 kts 249°
2026-04-28 14:20 52.42575 5.17340 8381 ft 306 kts 249°
2026-04-28 14:20 52.41873 5.14134 8040 ft 297 kts 249°
2026-04-28 14:20 52.41180 5.10970 7626 ft 297 kts 249°
2026-04-28 14:21 52.40477 5.07772 7346 ft 299 kts 248°
2026-04-28 14:21 52.39775 5.04597 7260 ft 296 kts 250°
2026-04-28 14:21 52.39129 5.01408 7260 ft 294 kts 251°
2026-04-28 14:21 52.38488 4.98227 7264 ft 292 kts 250°
2026-04-28 14:22 52.37855 4.95108 7269 ft 294 kts 250°
2026-04-28 14:22 52.37213 4.91923 7258 ft 295 kts 250°
2026-04-28 14:22 52.36569 4.88726 7268 ft 295 kts 251°
2026-04-28 14:22 52.35924 4.85544 7264 ft 294 kts 250°
2026-04-28 14:23 52.35280 4.82364 7272 ft 294 kts 250°
2026-04-28 14:23 52.34636 4.79201 7269 ft 292 kts 250°
2026-04-28 14:23 52.33993 4.76049 7268 ft 295 kts 250°
2026-04-28 14:23 52.33345 4.72853 7266 ft 295 kts 250°
2026-04-28 14:24 52.32700 4.69657 7212 ft 294 kts 250°
2026-04-28 14:24 52.32063 4.66513 7130 ft 289 kts 250°
2026-04-28 14:24 52.31434 4.63415 6733 ft 287 kts 250°
2026-04-28 14:24 52.30799 4.60318 6204 ft 289 kts 250°
2026-04-28 14:25 52.30163 4.57192 5721 ft 290 kts 250°
2026-04-28 14:25 52.29533 4.54087 5314 ft 288 kts 250°
2026-04-28 14:25 52.28909 4.51006 4715 ft 286 kts 250°
2026-04-28 14:25 52.28281 4.47948 4157 ft 286 kts 250°
2026-04-28 14:26 52.27636 4.44879 3620 ft 285 kts 250°
2026-04-28 14:26 52.26989 4.41843 3139 ft 282 kts 250°
2026-04-28 14:26 52.26325 4.38823 2625 ft 281 kts 250°
2026-04-28 14:26 52.25559 4.35881 2131 ft 283 kts 237°
2026-04-28 14:27 52.24197 4.33665 2013 ft 275 kts 207°
2026-04-28 14:27 52.22415 4.32725 1997 ft 267 kts 179°
2026-04-28 14:27 52.20633 4.33208 2005 ft 257 kts 150°
2026-04-28 14:27 52.19269 4.34922 1974 ft 243 kts 121°
2026-04-28 14:28 52.18659 4.37320 1968 ft 219 kts 94°
2026-04-28 14:28 52.18518 4.39706 1971 ft 206 kts 92°
2026-04-28 14:28 52.18359 4.41968 1973 ft 192 kts 92°
2026-04-28 14:28 52.18237 4.44048 1977 ft 178 kts 86°
2026-04-28 14:29 52.18445 4.46038 1970 ft 181 kts 70°
2026-04-28 14:29 52.18972 4.47893 1972 ft 178 kts 61°
2026-04-28 14:29 52.19586 4.49557 1974 ft 163 kts 58°
2026-04-28 14:29 52.20181 4.51082 1980 ft 159 kts 58°
2026-04-28 14:30 52.20772 4.52624 1983 ft 161 kts 58°
2026-04-28 14:30 52.21364 4.54151 1973 ft 157 kts 58°
2026-04-28 14:30 52.21946 4.55660 1973 ft 158 kts 58°
2026-04-28 14:30 52.22534 4.57176 1978 ft 158 kts 58°
2026-04-28 14:31 52.23114 4.58682 1982 ft 157 kts 59°
2026-04-28 14:31 52.23696 4.60196 1912 ft 157 kts 59°
2026-04-28 14:31 52.24253 4.61634 1718 ft 144 kts 59°
2026-04-28 14:31 52.24770 4.62982 1525 ft 137 kts 57°
2026-04-28 14:32 52.25275 4.64290 1340 ft 134 kts 59°
2026-04-28 14:32 52.25763 4.65568 1158 ft 129 kts 58°
2026-04-28 14:32 52.26232 4.66755 978 ft 121 kts 57°
2026-04-28 14:32 52.26538 4.67524 839 ft 122 kts 58°
2026-04-28 14:33 52.27144 4.69086 795 ft 124 kts 58°
2026-04-28 14:33 52.27597 4.70302 603 ft 125 kts 57°
2026-04-28 14:33 52.28048 4.71515 399 ft 124 kts 56°
2026-04-28 14:33 52.28365 4.72321 273 ft 126 kts 55°
2026-04-28 14:34 52.29267 4.74665 6 ft 103 kts 55°
2026-04-28 14:34 52.29558 4.75407 3 ft 53 kts 58°
2026-04-28 14:34 52.29649 4.75645 4 ft 0 kts 52°
2026-04-28 14:35 52.29709 4.75736 3 ft 20 kts 34°
2026-04-28 14:35 52.29810 4.75830 3 ft 14 kts 28°
2026-04-28 14:35 52.29888 4.75895 4 ft 11 kts 26°
2026-04-28 14:35 52.29950 4.75945 4 ft 9 kts 28°
2026-04-28 14:36 52.29994 4.75998 4 ft 7 kts 51°
2026-04-28 14:36 52.30020 4.76062 4 ft 7 kts 63°
2026-04-28 14:36 52.30065 4.76184 4 ft 17 kts 58°
2026-04-28 14:36 52.30141 4.76383 4 ft 23 kts 58°
2026-04-28 14:37 52.30234 4.76620 4 ft 25 kts 57°
2026-04-28 14:37 52.30317 4.76835 4 ft 21 kts 58°
2026-04-28 14:37 52.30388 4.77021 4 ft 18 kts 58°
2026-04-28 14:37 52.30450 4.77185 4 ft 16 kts 58°
2026-04-28 14:38 52.30505 4.77332 4 ft 15 kts 58°
2026-04-28 14:38 52.30557 4.77465 4 ft 13 kts 57°
2026-04-28 14:38 52.30616 4.77564 4 ft 11 kts 26°
2026-04-28 14:38 52.30691 4.77590 4 ft 12 kts
2026-04-28 14:39 52.30789 4.77600 4 ft 17 kts
2026-04-28 14:39 52.30913 4.77610 4 ft 18 kts
2026-04-28 14:39 52.31034 4.77622 4 ft 17 kts
2026-04-28 14:39 52.31156 4.77634 4 ft 18 kts
2026-04-28 14:40 52.31286 4.77646 4 ft 19 kts
2026-04-28 14:40 52.31377 4.77655 4 ft 19 kts
2026-04-28 14:40 52.31518 4.77544 4 ft 17 kts 316°
2026-04-28 14:40 52.31575 4.77374 4 ft 18 kts 270°
2026-04-28 14:41 52.31571 4.77148 4 ft 22 kts 267°
2026-04-28 14:41 52.31562 4.76879 4 ft 26 kts 266°
2026-04-28 14:41 52.31549 4.76568 4 ft 29 kts 266°
2026-04-28 14:41 52.31538 4.76230 4 ft 31 kts 268°
2026-04-28 14:42 52.31527 4.75858 4 ft 33 kts 266°
2026-04-28 14:42 52.31514 4.75528 4 ft 10 kts 261°
2026-04-28 14:42 52.31474 4.75447 4 ft 10 kts 188°
2026-04-28 14:42 52.31389 4.75443 4 ft 14 kts 179°
2026-04-28 14:43 52.31353 4.75483 4 ft 5 kts 91°
2026-04-28 14:43 52.31352 4.75549 4 ft 0 kts 90°
2026-04-28 14:43 52.31353 4.75566 4 ft 3 kts 89°
2026-04-28 14:43 52.31353 4.75579 4 ft 0 kts 88°